Simultaneous Nadir Overpasses (SNOs) Predictions

Prediction of SNOs between NOAA-19 and TERRA Satellite Orbit:

Table of predicted SNOs for the next 14.0 days since TLE Epoch: 11/18/2013
Index Date (NOAA-19) Time (NOAA-19) Lat,Lon (NOAA-19) SZA (NOAA-19 ) Date (TERRA) Time (TERRA) Lat,Lon (TERRA) SZA (TERRA ) Distance(km) Time Diff (sec)
1 11/19/2013 10:32:56 -69.92,-157.75 90.60 11/19/2013 10:33:33 -69.93,-157.77 90.59 1.43 37
2 11/19/2013 11:23:52 69.81, 9.68 89.31 11/19/2013 11:23:00 69.82, 9.73 89.31 2.53 52
3 11/21/2013 15:17:06 -69.95, 131.19 90.09 11/21/2013 15:17:49 -69.93, 131.17 90.10 1.92 43
4 11/21/2013 16:08:02 69.84, -61.40 89.83 11/21/2013 16:07:16 69.82, -61.34 89.80 3.33 46
5 11/23/2013 20:01:16 -69.98, 60.11 89.59 11/23/2013 20:02:04 -69.96, 60.15 89.61 2.79 48
6 11/23/2013 20:52:11 69.83,-132.40 90.28 11/23/2013 20:51:31 69.86,-132.36 90.29 2.93 40
7 11/26/2013 00:45:25 -69.98, -10.91 89.16 11/26/2013 00:46:19 -69.97, -10.90 89.17 0.95 54
8 11/26/2013 01:36:20 69.83, 156.58 90.70 11/26/2013 01:35:46 69.86, 156.59 90.73 3.58 34
9 11/28/2013 05:29:34 -69.99, -81.94 88.76 11/28/2013 05:30:33 -70.02, -81.90 88.73 3.30 59
10 11/28/2013 06:20:29 69.84, 85.56 91.10 11/28/2013 06:20:01 69.85, 85.51 91.11 2.16 28
11 11/30/2013 10:13:43 -70.01,-152.99 88.37 11/30/2013 10:14:48 -69.98,-153.01 88.40 3.46 65
12 11/30/2013 11:04:38 69.85, 14.52 91.48 11/30/2013 11:04:15 69.86, 14.48 91.49 2.39 23
